Tracking 28779 objects as of 17-Apr-2024
HD Live streaming from Space Station
objects crossing your sky now

OBJECT C

Track OBJECT C now!
10-day predictions


NORAD ID: 51096
Int'l Code: 2022-003C
Perigee: 395.4 km
Apogee: 403.9 km
Inclination: 44.9 °
Period: 92.4 minutes
Semi major axis: 6770 km
RCS: Unknown
Launch date: January 13, 2022
Source: (TBD)
Launch site: Pegasus launched from Western Range Air Space (WRAS)

Note: This is a ROCKET BODY
Your satellite tracking list
Your tracking list is empty




NASA's NSSDC Master Catalog

Two Line Element Set (TLE):
1 51096U 22003C   24107.79420885  .00109549  00000-0  13932-2 0  9993
2 51096  44.9472 332.0339 0006303 209.7548 150.2988 15.58323071126437
Source of the keplerian elements: AFSPC